BAW9174 EGLL-EGFF

Flight info

Callsign BAW9174
Flight time N/A
Altitude 15000
Route CPT Q63 ICTAM
Aircraft B77W/H-SDE1E2E3FGHIJ2J3J4J5M1RWXY/LB1D1

Departure

Time N/A
Airport London Heathrow Airport (EGLL)

Arrival

Time 2026-04-28 08:48
Airport Cardiff International Airport (EGFF)
Time Latitude Longitude Altitude Speed Heading
2026-04-28 08:31 51.60606 -1.95000 15305 ft 349 kts 282°
2026-04-28 08:32 51.60878 -1.98826 15299 ft 349 kts 282°
2026-04-28 08:32 51.60944 -2.02733 15305 ft 355 kts 267°
2026-04-28 08:32 51.60287 -2.06631 15297 ft 363 kts 248°
2026-04-28 08:32 51.59008 -2.10091 15301 ft 363 kts 233°
2026-04-28 08:33 51.57432 -2.13275 15309 ft 364 kts 231°
2026-04-28 08:33 51.55841 -2.16412 15311 ft 364 kts 231°
2026-04-28 08:33 51.54254 -2.19557 15296 ft 364 kts 231°
2026-04-28 08:33 51.52674 -2.22698 15297 ft 364 kts 231°
2026-04-28 08:34 51.51097 -2.25843 15292 ft 364 kts 231°
2026-04-28 08:34 51.49506 -2.29015 15287 ft 362 kts 231°
2026-04-28 08:34 51.47931 -2.32153 15290 ft 363 kts 232°
2026-04-28 08:34 51.46357 -2.35289 15289 ft 364 kts 231°
2026-04-28 08:35 51.44753 -2.38480 15291 ft 365 kts 231°
2026-04-28 08:35 51.43176 -2.41614 15273 ft 361 kts 232°
2026-04-28 08:35 51.41684 -2.44754 14988 ft 354 kts 240°
2026-04-28 08:35 51.40712 -2.48316 14491 ft 351 kts 258°
2026-04-28 08:36 51.40197 -2.52118 14010 ft 348 kts 263°
2026-04-28 08:36 51.39783 -2.55906 13558 ft 347 kts 264°
2026-04-28 08:36 51.39386 -2.59707 13078 ft 347 kts 265°
2026-04-28 08:36 51.38996 -2.63485 12629 ft 346 kts 264°
2026-04-28 08:37 51.38605 -2.67286 12165 ft 345 kts 264°
2026-04-28 08:37 51.38277 -2.71053 11685 ft 341 kts 272°
2026-04-28 08:37 51.38448 -2.74742 11397 ft 329 kts 282°
2026-04-28 08:37 51.38777 -2.78297 11369 ft 312 kts 284°
2026-04-28 08:38 51.39114 -2.81694 11371 ft 318 kts 284°
2026-04-28 08:38 51.39463 -2.85182 11369 ft 324 kts 284°
2026-04-28 08:38 51.39817 -2.88781 11363 ft 325 kts 284°
2026-04-28 08:38 51.40195 -2.92370 11132 ft 330 kts 285°
2026-04-28 08:39 51.40672 -2.95908 10595 ft 324 kts 295°
2026-04-28 08:39 51.41524 -2.99221 10091 ft 322 kts 300°
2026-04-28 08:39 51.42422 -3.02479 9587 ft 323 kts 300°
2026-04-28 08:39 51.43333 -3.05741 9084 ft 323 kts 300°
2026-04-28 08:40 51.44253 -3.09014 8577 ft 323 kts 300°
2026-04-28 08:40 51.45173 -3.12242 8024 ft 318 kts 300°
2026-04-28 08:40 51.46062 -3.15397 7628 ft 303 kts 300°
2026-04-28 08:40 51.46908 -3.18391 7303 ft 290 kts 300°
2026-04-28 08:41 51.47734 -3.21324 6975 ft 287 kts 300°
2026-04-28 08:41 51.48553 -3.24214 6616 ft 285 kts 300°
2026-04-28 08:41 51.49104 -3.26146 6381 ft 283 kts 300°
2026-04-28 08:41 51.50174 -3.29916 5920 ft 278 kts 300°
2026-04-28 08:42 51.50963 -3.32712 5547 ft 272 kts 300°
2026-04-28 08:42 51.51730 -3.35423 5239 ft 264 kts 300°
2026-04-28 08:42 51.52477 -3.38096 4913 ft 265 kts 300°
2026-04-28 08:42 51.53147 -3.40877 4499 ft 269 kts 287°
2026-04-28 08:43 51.53089 -3.43858 4020 ft 271 kts 255°
2026-04-28 08:43 51.52245 -3.46479 3603 ft 260 kts 236°
2026-04-28 08:43 51.51263 -3.48770 3193 ft 246 kts 235°
2026-04-28 08:43 51.50119 -3.50692 2773 ft 233 kts 208°
2026-04-28 08:44 51.48640 -3.51368 2383 ft 214 kts 176°
2026-04-28 08:44 51.47188 -3.51374 2213 ft 203 kts 173°
2026-04-28 08:44 51.45819 -3.51345 2191 ft 186 kts 162°
2026-04-28 08:44 51.44665 -3.50694 2187 ft 169 kts 135°
2026-04-28 08:45 51.44055 -3.49305 2084 ft 153 kts 94°
2026-04-28 08:45 51.44038 -3.47646 1891 ft 146 kts 95°
2026-04-28 08:45 51.43470 -3.46336 1699 ft 149 kts 134°
2026-04-28 08:45 51.42798 -3.45261 1526 ft 129 kts 100°
2026-04-28 08:46 51.42609 -3.43890 1398 ft 124 kts 98°
2026-04-28 08:46 51.42301 -3.42604 1238 ft 126 kts 110°
2026-04-28 08:46 51.41878 -3.41359 1072 ft 130 kts 107°
2026-04-28 08:46 51.41486 -3.40096 902 ft 128 kts 110°
2026-04-28 08:47 51.41072 -3.38827 700 ft 128 kts 108°
2026-04-28 08:47 51.40683 -3.37566 508 ft 125 kts 109°
2026-04-28 08:47 51.40287 -3.36337 363 ft 124 kts 110°
2026-04-28 08:47 51.39899 -3.35099 224 ft 119 kts 110°
2026-04-28 08:48 51.39595 -3.34120 230 ft 76 kts 117°
2026-04-28 08:48 51.39392 -3.33483 228 ft 41 kts 117°
2026-04-28 08:48 51.39302 -3.33209 224 ft 10 kts 117°
2026-04-28 08:48 51.39286 -3.33155 223 ft 4 kts 98°
2026-04-28 08:49 51.39320 -3.33095 220 ft 10 kts 34°
2026-04-28 08:49 51.39383 -3.33042 217 ft 9 kts 19°
2026-04-28 08:49 51.39441 -3.33076 217 ft 9 kts 313°
2026-04-28 08:49 51.39474 -3.33152 220 ft 7 kts 299°
2026-04-28 08:50 51.39496 -3.33219 221 ft 7 kts 297°
2026-04-28 08:50 51.39524 -3.33312 223 ft 13 kts 296°
2026-04-28 08:50 51.39563 -3.33437 225 ft 11 kts 297°
2026-04-28 08:50 51.39598 -3.33548 226 ft 4 kts 297°
2026-04-28 08:51 51.39608 -3.33579 226 ft 1 kts 297°
2026-04-28 08:51 51.39614 -3.33590 226 ft 1 kts 322°
2026-04-28 08:51 51.39626 -3.33595 226 ft 2 kts
2026-04-28 08:51 51.39651 -3.33572 226 ft 6 kts 41°
2026-04-28 08:52 51.39675 -3.33556 226 ft 2 kts 336°
2026-04-28 08:52 51.39681 -3.33575 226 ft 2 kts 276°
2026-04-28 08:52 51.39681 -3.33582 226 ft 0 kts 269°